Estación Meteorológica Peña el Pijo (Robertgarden) [ 09/30/20 01:51:59 CEST ]

Fecha Hora Presion(HPa) Temp (°C) Humedad % Rocio (°C) Viento ( m/s) Direccion Lluvia 1Hora(mm) Lluvia 24H(mm) LLuvia Total(mm)
2020-Apr-28 01:09:14 1004.900 - - - - W     39.88
2020-Apr-28 02:09:13 1004.900 - - - - W     39.88
2020-Apr-28 03:08:54 1004.800 - - - - W     39.88
2020-Apr-28 04:09:33 1004.600 - - - - W     39.88
2020-Apr-28 05:09:23 1004.900 - - - - W     39.88
2020-Apr-28 06:09:24 1004.500 - - - - W     39.88
2020-Apr-28 07:09:37 1004.500 - - - - W     39.88
2020-Apr-28 08:09:31 1005.300 - - - - W     39.88
2020-Apr-28 09:09:40 1005.600 - - - - W     39.88
2020-Apr-28 10:09:40 1005.900 - - - - W     39.88
2020-Apr-28 11:09:33 1006.100 - - - - W     39.88
2020-Apr-28 12:09:23 1006.200 - - - - W     39.88
2020-Apr-28 13:09:08 1006.200 - - - - W     39.88
2020-Apr-28 14:09:11 1006.000 - - - - W     39.88
2020-Apr-28 15:08:48 1005.800 - - - - W     39.88
2020-Apr-28 16:09:03 1006.100 - - - - W     39.88
2020-Apr-28 17:09:02 1005.700 - - - - W     39.88
2020-Apr-28 18:09:17 1006.200 - - - - W     39.88
2020-Apr-28 19:08:50 1006.400 - - - - W     39.88
2020-Apr-28 20:09:10 1006.800 - - - - W     39.88
2020-Apr-28 21:08:47 1007.000 - - - - W     39.88
2020-Apr-28 22:09:09 1008.000 - - - - W     39.88
2020-Apr-28 23:09:20 1008.400 - - - - W     39.88

Temperatura Máxima:    Temperatura Mínima:
Presión Máxima:1008.400 Hpa    Presión Mínima:1004.500 Hpa


Volver